LZ3VG-1 Weather Reports


Display with metric or nautical units.
time (UTC)temp
F
wind
direction
speed
MPH
gust
MPH
rain 1hr
in
rain 24hr
in
rain mn
in
humidity
%
barometer
mb
20260905175300 71 307 5.0 7.0 0.00 0.02 0.02 49 1019.8
20260905174801 71 269 1.0 7.0 0.00 0.02 0.02 49 1019.7
20260905174532 71 307 2.0 8.0 0.00 0.02 0.02 49 1019.8
20260905174035 71 298 5.0 9.0 0.00 0.02 0.02 48 1019.9
20260905173301 71 301 3.0 9.0 0.00 0.02 0.02 48 1019.8
20260905173032 72 318 6.0 11.0 0.00 0.02 0.02 47 1019.7
20260905172305 72 312 4.0 11.0 0.00 0.02 0.02 47 1019.5
20260905171801 72 8 2.0 10.0 0.00 0.02 0.02 46 1019.6
20260905171301 72 310 3.0 15.0 0.00 0.02 0.02 46 1019.4
20260905170801 72 345 1.0 16.0 0.00 0.02 0.02 45 1019.3
20260905170301 72 289 3.0 16.0 0.00 0.02 0.02 45 1019.4
20260905170036 72 305 8.0 8.0 0.00 0.02 0.02 46 1019.3
20260905165305 72 295 2.0 6.0 0.00 0.02 0.02 46 1019.7
20260905164801 72 249 0.0 6.0 0.00 0.02 0.02 47 1019.1
20260905164532 72 269 0.0 9.0 0.00 0.02 0.02 47 1019.1
20260905163801 73 301 3.0 9.0 0.00 0.02 0.02 46 1019.1
20260905163319 73 287 4.0 7.0 0.00 0.02 0.02 46 1019.5
20260905163311 73 39 2.0 7.0 0.00 0.02 0.02 46 1019.3
20260905162301 73 294 4.0 6.0 0.00 0.02 0.02 46 1019.3
20260905162036 73 324 4.0 7.0 0.00 0.02 0.02 46 1019.0
20260905161301 73 317 2.0 7.0 0.00 0.02 0.02 45 1019.1
20260905161052 75 140 2.0 5.0 0.00 0.02 0.02 43 1018.7
20260905160813 74 257 4.0 6.0 0.00 0.02 0.02 43 1018.8
20260905160035 75 311 4.0 5.0 0.00 0.02 0.02 42 1019.0
20260905155301 74 293 2.0 7.0 0.00 0.02 0.02 43 1019.1
20260905154801 74 295 3.0 13.0 0.00 0.02 0.02 43 1018.9
20260905154301 73 304 3.0 15.0 0.00 0.02 0.02 43 1019.1
20260905153801 74 303 6.0 19.0 0.00 0.02 0.02 42 1019.0
20260905153302 74 327 3.0 19.0 0.00 0.02 0.02 42 1018.8
20260905152802 74 331 6.0 17.0 0.00 0.02 0.02 41 1019.0
20260905152320 73 344 4.0 13.0 0.00 0.02 0.02 42 1018.9
20260905152311 73 312 8.0 13.0 0.00 0.02 0.02 41 1018.9
20260905151531 73 293 3.0 13.0 0.00 0.02 0.02 42 1018.9
20260905150801 74 328 3.0 10.0 0.00 0.02 0.02 41 1019.0
20260905150314 74 311 4.0 20.0 0.00 0.02 0.02 41 1018.9
20260905150306 74 321 6.0 12.0 0.00 0.02 0.02 41 1018.7
20260905145301 74 325 6.0 20.0 0.00 0.02 0.02 41 1018.8
20260905144801 74 320 11.0 18.0 0.00 0.02 0.02 40 1018.9
20260905144300 74 347 6.0 18.0 0.00 0.02 0.02 41 1018.9
20260905144033 74 336 9.0 19.0 0.00 0.02 0.02 41 1018.9
20260905143302 74 323 8.0 21.0 0.00 0.02 0.02 41 1018.9
20260905142801 74 339 4.0 21.0 0.00 0.02 0.02 41 1018.6
20260905142301 74 318 14.0 20.0 0.00 0.02 0.02 40 1018.7
20260905141800 75 323 4.0 13.0 0.00 0.02 0.02 41 1018.9
20260905141300 75 315 3.0 14.0 0.00 0.02 0.02 41 1018.9
20260905141035 75 332 6.0 18.0 0.00 0.02 0.02 41 1018.8
20260905140534 75 325 3.0 18.0 0.00 0.02 0.02 40 1018.9
20260905135803 75 297 6.0 16.0 0.00 0.02 0.02 39 1018.9
20260905135306 75 316 6.0 16.0 0.00 0.02 0.02 41 1018.8
20260905134800 75 311 11.0 13.0 0.00 0.02 0.02 40 1018.7
20260905134302 75 276 4.0 16.0 0.00 0.02 0.02 42 1018.7
20260905133801 74 298 5.0 16.0 0.00 0.02 0.02 41 1018.9
20260905133303 75 317 4.0 13.0 0.00 0.02 0.02 40 1019.3
20260905132801 75 306 6.0 15.0 0.00 0.02 0.02 41 1018.9
20260905132305 74 295 6.0 16.0 0.00 0.02 0.02 42 1018.9
20260905131802 75 332 2.0 16.0 0.00 0.02 0.02 42 1018.8
20260905131301 75 325 7.0 13.0 0.00 0.02 0.02 41 1018.8
20260905131032 75 349 2.0 9.0 0.00 0.02 0.02 42 1018.7
20260905130304 75 33 2.0 17.0 0.00 0.02 0.02 41 1018.9
20260905125802 74 309 5.0 17.0 0.00 0.02 0.02 42 1019.1
20260905125305 74 258 4.0 17.0 0.00 0.02 0.02 42 1018.9
20260905124801 74 321 12.0 15.0 0.00 0.02 0.02 41 1018.8
20260905124302 74 301 6.0 18.0 0.00 0.02 0.02 42 1018.9
20260905123816 73 321 9.0 13.0 0.00 0.02 0.02 45 1018.8
20260905123810 74 329 3.0 18.0 0.00 0.02 0.02 43 1018.9
20260905122802 73 315 3.0 16.0 0.00 0.02 0.02 46 1018.7
20260905122534 74 315 6.0 16.0 0.00 0.02 0.02 46 1018.8
20260905122026 74 333 2.0 13.0 0.00 0.02 0.02 44 1018.7
20260905121520 74 324 7.0 13.0 0.00 0.02 0.02 44 1019.1
20260905120742 74 352 2.0 16.0 0.00 0.02 0.02 44 1019.0
20260905120230 73 316 12.0 19.0 0.00 0.02 0.02 45 1019.0
20260905115729 73 314 3.0 19.0 0.00 0.02 0.02 47 1019.1
20260905115229 73 320 4.0 15.0 0.00 0.02 0.02 45 1019.4
20260905115005 72 313 3.0 15.0 0.00 0.02 0.02 47 1019.1
20260905114229 72 341 5.0 19.0 0.00 0.02 0.02 47 1019.3
20260905113728 72 324 10.0 20.0 0.00 0.02 0.02 46 1019.3
20260905113505 72 325 8.0 20.0 0.00 0.02 0.02 47 1019.3
20260905112731 72 333 13.0 19.0 0.00 0.02 0.02 47 1019.4
20260905112505 74 302 5.0 11.0 0.00 0.02 0.02 48 1019.6
20260905111732 73 305 6.0 15.0 0.00 0.02 0.02 49 1019.5
20260905111230 73 287 9.0 15.0 0.00 0.02 0.02 48 1019.4
20260905110730 73 317 5.0 8.0 0.00 0.02 0.02 50 1019.5
20260905110228 72 308 4.0 10.0 0.00 0.02 0.02 50 1019.4
20260905105729 71 351 3.0 11.0 0.00 0.02 0.02 51 1019.5
20260905105229 71 293 6.0 11.0 0.00 0.02 0.02 51 1019.5
20260905105006 72 338 3.0 11.0 0.00 0.02 0.02 50 1019.4
20260905104229 72 318 2.0 11.0 0.00 0.02 0.02 51 1019.4
20260905103746 71 302 4.0 10.0 0.00 0.02 0.02 53 1019.3
20260905103738 71 325 7.0 10.0 0.00 0.02 0.02 52 1019.3
20260905102729 70 218 0.0 8.0 0.00 0.02 0.02 58 1019.5
20260905102230 69 338 5.0 12.0 0.00 0.02 0.02 57 1019.5
20260905101729 69 326 4.0 12.0 0.00 0.02 0.02 60 1019.5
20260905101502 69 299 6.0 10.0 0.00 0.02 0.02 60 1019.6
20260905100729 69 286 3.0 11.0 0.00 0.02 0.02 63 1019.7
20260905100230 68 339 5.0 11.0 0.00 0.02 0.02 63 1019.7
20260905100004 68 308 2.0 15.0 0.00 0.02 0.02 65 1019.6
20260905095230 68 341 6.0 15.0 0.00 0.02 0.02 64 1019.7
20260905095002 68 322 7.0 11.0 0.00 0.02 0.02 66 1019.8
20260905094230 69 300 6.0 9.0 0.00 0.02 0.02 66 1019.9
20260905093729 69 224 1.0 5.0 0.00 0.02 0.02 66 1019.7
20260905093502 69 295 2.0 6.0 0.00 0.02 0.02 67 1019.9
20260905093002 69 334 4.0 6.0 0.00 0.02 0.02 67 1019.8
20260905092505 68 13 1.0 3.0 0.00 0.02 0.02 68 1020.2
20260905092008 69 256 0.0 4.0 0.00 0.02 0.02 68 1020.1
20260905091505 68 132 1.0 4.0 0.00 0.02 0.02 69 1020.2
20260905090733 67 0 0.0 4.0 0.00 0.02 0.02 72 1020.3
20260905090202 68 341 4.0 5.0 0.00 0.02 0.02 74 1020.2
20260905085705 66 283 2.0 5.0 0.00 0.02 0.02 72 1020.0
20260905085207 65 166 2.0 4.0 0.00 0.02 0.02 75 1020.0
20260905084658 65 58 1.0 4.0 0.00 0.02 0.02 76 1020.0
20260905084419 64 104 2.0 4.0 0.00 0.02 0.02 78 1020.0
20260905083919 64 231 3.0 4.0 0.00 0.02 0.02 80 1020.3
20260905083143 64 196 2.0 3.0 0.00 0.02 0.02 80 1020.1
20260905082644 63 39 1.0 3.0 0.00 0.02 0.02 81 1020.0
20260905082414 62 146 0.0 4.0 0.00 0.02 0.02 82 1020.3
20260905081644 62 146 2.0 4.0 0.00 0.02 0.02 82 1020.1
20260905081143 62 136 1.0 4.0 0.00 0.02 0.02 83 1020.3
20260905080644 61 124 2.0 3.0 0.00 0.02 0.02 84 1020.2
20260905080142 61 0 1.0 3.0 0.00 0.02 0.02 84 1020.0
20260905075645 61 21 0.0 2.0 0.00 0.02 0.02 86 1020.0
20260905075142 60 268 0.0 5.0 0.00 0.02 0.02 85 1019.9
20260905074928 60 210 2.0 4.0 0.00 0.02 0.02 85 1019.1
20260905074651 60 163 0.0 5.0 0.00 0.02 0.02 85 1019.7
20260905073920 60 239 1.0 4.0 0.00 0.02 0.02 86 1019.7
20260905073413 60 155 1.0 4.0 0.01 0.02 0.02 86 1018.9
20260905072643 60 312 0.0 4.0 0.01 0.02 0.02 86 1018.7
20260905072142 60 198 1.0 4.0 0.01 0.02 0.02 86 1018.9
20260905071916 60 248 0.0 4.0 0.01 0.02 0.02 86 1018.6
20260905071143 60 308 1.0 4.0 0.01 0.02 0.02 86 1018.7
20260905070644 60 346 0.0 11.0 0.01 0.02 0.02 85 1019.3
20260905070144 60 350 1.0 12.0 0.01 0.02 0.02 84 1018.8
20260905065644 59 337 6.0 12.0 0.01 0.00 0.02 84 1018.8
20260905065413 59 303 2.0 10.0 0.01 0.00 0.02 85 1019.0
20260905064915 59 302 2.0 4.0 0.02 0.00 0.02 86 1018.6
20260905064416 59 339 3.0 3.0 0.02 0.00 0.02 84 1018.5
20260905063919 60 174 1.0 3.0 0.02 0.00 0.02 84 1018.5
20260905063143 60 2 0.0 3.0 0.01 0.00 0.01 83 1018.8
20260905062916 60 72 1.0 4.0 0.00 0.00 0.00 82 1018.9
20260905062158 61 301 4.0 7.0 0.00 0.00 0.00 80 1019.1
20260905062151 61 243 0.0 4.0 0.00 0.00 0.00 81 1019.1
20260905061145 61 232 2.0 7.0 0.00 0.00 0.00 79 1019.4
20260905060645 61 347 3.0 8.0 0.00 0.00 0.00 79 1018.9
20260905060143 61 234 1.0 8.0 0.00 0.00 0.00 80 1018.9
20260905055657 61 6 5.0 10.0 0.00 0.00 0.00 80 1019.1
20260905055144 62 352 5.0 13.0 0.00 0.00 0.00 79 1019.0
20260905054643 62 337 5.0 13.0 0.00 0.00 0.00 76 1018.8
20260905054143 63 116 2.0 5.0 0.00 0.00 0.00 80 1018.9
20260905053645 62 59 2.0 4.0 0.00 0.00 0.00 80 1018.9
20260905053142 63 129 2.0 4.0 0.00 0.00 0.00 82 1018.6
20260905052643 63 120 2.0 3.0 0.00 0.00 0.00 82 1018.7
20260905052414 63 98 0.0 3.0 0.00 0.00 0.00 82 1018.3
20260905051917 63 184 1.0 3.0 0.00 0.00 0.00 82 1018.1
20260905051142 63 198 0.0 4.0 0.00 0.00 0.00 81 1018.1
20260905050643 63 31 2.0 6.0 0.00 0.00 0.00 81 1017.8
20260905050142 63 327 2.0 6.0 0.00 0.00 0.00 81 1018.1
20260905045915 63 349 2.0 6.0 0.00 0.00 0.00 81 1018.1
20260905045143 63 216 0.0 10.0 0.00 0.00 0.00 82 1018.0
20260905044643 63 348 4.0 10.0 0.00 0.00 0.00 81 1017.9
20260905044145 63 325 2.0 6.0 0.00 0.00 0.00 82 1017.8
20260905043644 63 316 2.0 6.0 0.00 0.00 0.00 81 1017.5
20260905043158 64 316 2.0 6.0 0.00 0.00 0.00 80 1017.3
20260905043152 64 81 1.0 6.0 0.00 0.00 0.00 81 1017.4
20260905042143 64 204 2.0 8.0 0.00 0.00 0.00 79 1017.3
20260905041645 64 18 3.0 8.0 0.00 0.00 0.00 78 1017.3
20260905041142 65 306 2.0 10.0 0.00 0.00 0.00 78 1017.2
20260905040918 65 284 3.0 10.0 0.00 0.00 0.00 77 1016.8
20260905040144 65 351 5.0 15.0 0.00 0.00 0.00 76 1016.9
20260905035644 66 0 1.0 16.0 0.00 0.00 0.00 72 1016.9
20260905035143 66 326 15.0 15.0 0.00 0.00 0.00 69 1017.3
20260905034644 66 326 3.0 15.0 0.00 0.00 0.00 68 1016.5
20260905034143 66 320 4.0 15.0 0.00 0.00 0.00 68 1016.4
20260905033645 66 351 7.0 15.0 0.00 0.00 0.00 68 1016.1
20260905033142 67 318 11.0 16.0 0.00 0.00 0.00 67 1016.3
20260905032644 67 325 4.0 16.0 0.00 0.00 0.00 66 1015.9
20260905032415 67 317 6.0 14.0 0.00 0.00 0.00 65 1015.9
20260905031711 68 319 6.0 17.0 0.00 0.00 0.00 62 1016.3
20260905031704 68 347 5.0 17.0 0.00 0.00 0.00 63 1016.4
20260905030644 68 323 10.0 17.0 0.00 0.00 0.00 61 1016.0
20260905030155 68 318 6.0 17.0 0.00 0.00 0.00 60 1015.7
20260905025646 68 294 8.0 17.0 0.00 0.00 0.00 61 1015.6
20260905025137 68 319 8.0 13.0 0.00 0.00 0.00 62 1015.6
20260905024638 68 307 8.0 14.0 0.00 0.00 0.00 63 1015.4
20260905024416 68 346 2.0 14.0 0.00 0.00 0.00 63 1015.4
20260905023634 68 310 6.0 10.0 0.00 0.00 0.00 63 1015.3
20260905023404 68 288 5.0 10.0 0.00 0.00 0.00 63 1015.2
20260905022634 68 339 4.0 9.0 0.00 0.00 0.00 63 1015.3
20260905022148 68 242 2.0 12.0 0.00 0.00 0.00 64 1015.4
20260905022141 68 327 6.0 12.0 0.00 0.00 0.00 63 1015.4
20260905021147 68 273 4.0 9.0 0.00 0.00 0.00 64 1015.5
20260905020647 69 343 2.0 11.0 0.00 0.00 0.00 63 1015.0
20260905020642 69 295 5.0 10.0 0.00 0.00 0.00 64 1015.3
20260905015634 69 326 8.0 11.0 0.00 0.00 0.00 63 1014.6
20260905015133 69 329 6.0 15.0 0.00 0.00 0.00 63 1014.9
20260905014635 69 306 8.0 15.0 0.00 0.00 0.00 63 1015.1
20260905014133 69 310 5.0 15.0 0.00 0.00 0.00 63 1015.3
20260905013634 69 329 2.0 17.0 0.00 0.00 0.00 63 1014.9
20260905013133 70 319 12.0 17.0 0.00 0.00 0.00 63 1015.1
20260905012634 70 309 8.0 17.0 0.00 0.00 0.00 64 1014.8
20260905012133 70 9 5.0 20.0 0.00 0.00 0.00 65 1014.9
20260905011634 70 325 4.0 20.0 0.00 0.00 0.00 65 1014.8
20260905011132 71 336 6.0 22.0 0.00 0.00 0.00 65 1014.7
20260905010634 71 321 1.0 22.0 0.00 0.00 0.00 64 1014.6
20260905010135 71 333 13.0 24.0 0.00 0.00 0.00 64 1014.5
20260905005904 72 325 4.0 24.0 0.00 0.00 0.00 63 1013.8
20260905005133 74 330 21.0 23.0 0.00 0.00 0.00 58 1013.6
20260905004634 75 316 5.0 7.0 0.00 0.00 0.00 58 1013.2
20260905004132 75 299 2.0 5.0 0.00 0.00 0.00 56 1012.7
20260905003634 75 256 2.0 4.0 0.00 0.00 0.00 57 1012.5
20260905003133 74 307 2.0 4.0 0.00 0.00 0.00 58 1012.4
20260905002907 73 296 0.0 3.0 0.00 0.00 0.00 60 1012.4
20260905002134 72 284 0.0 2.0 0.00 0.00 0.00 63 1012.3
20260905001907 71 269 0.0 2.0 0.00 0.00 0.00 66 1012.2
20260905001133 71 258 1.0 4.0 0.00 0.00 0.00 68 1012.1
20260905000634 71 283 0.0 5.0 0.00 0.00 0.00 70 1012.2
20260905000133 70 293 0.0 5.0 0.00 0.00 0.00 74 1012.0
20260904235634 69 276 1.0 4.0 0.00 0.00 0.00 74 1012.0
20260904235132 69 292 1.0 4.0 0.00 0.00 0.00 73 1012.1
20260904234650 67 350 2.0 4.0 0.00 0.00 0.00 82 1012.1
20260904234645 67 311 2.0 4.0 0.00 0.00 0.00 77 1011.9
20260904233907 66 319 2.0 2.0 0.00 0.00 0.00 84 1012.1
20260904233133 66 321 0.0 1.0 0.00 0.00 0.00 84 1012.0
20260904232634 66 110 0.0 1.0 0.00 0.00 0.00 83 1012.1
20260904232406 66 127 1.0 2.0 0.00 0.00 0.00 83 1012.2
20260904231648 66 187 0.0 3.0 0.00 0.00 0.00 82 1012.0
20260904231642 66 187 0.0 3.0 0.00 0.00 0.00 82 1012.2
20260904230923 66 224 0.0 1.0 0.00 0.00 0.00 82 1012.0
20260904230915 66 240 0.0 1.0 0.00 0.00 0.00 82 1011.9
20260904225646 66 242 0.0 2.0 0.00 0.00 0.00 82 1012.0
20260904225640 66 152 0.0 1.0 0.00 0.00 0.00 82 1012.0
20260904224634 66 230 0.0 2.0 0.00 0.00 0.00 83 1011.9
20260904224404 66 315 0.0 2.0 0.00 0.00 0.00 82 1011.9
20260904223635 66 135 0.0 2.0 0.00 0.00 0.00 82 1011.8
20260904223146 66 142 0.0 2.0 0.00 0.00 0.00 82 1011.9
20260904223139 66 217 0.0 2.0 0.00 0.00 0.00 82 1011.9
20260904222134 66 142 0.0 2.0 0.00 0.00 0.00 81 1012.0
20260904221634 66 93 1.0 2.0 0.00 0.00 0.00 81 1011.8
20260904221133 66 146 2.0 2.0 0.00 0.00 0.00 82 1011.8
20260904220646 66 159 1.0 2.0 0.00 0.00 0.00 82 1012.0
20260904220133 66 196 0.0 3.0 0.00 0.00 0.00 81 1011.8
20260904215634 66 202 0.0 3.0 0.00 0.00 0.00 81 1012.0
20260904215133 66 163 0.0 2.0 0.00 0.00 0.00 81 1011.7
20260904214633 66 135 1.0 2.0 0.00 0.00 0.00 81 1011.8
20260904214134 66 140 1.0 2.0 0.00 0.00 0.00 81 1011.8
20260904213635 66 141 1.0 2.0 0.00 0.00 0.00 81 1011.9
20260904213132 66 169 0.0 2.0 0.00 0.00 0.00 82 1011.7
20260904212634 66 135 0.0 1.0 0.00 0.00 0.00 81 1011.9
20260904212405 66 146 0.0 1.0 0.00 0.00 0.00 81 1011.8
20260904211905 66 122 0.0 1.0 0.00 0.00 0.00 80 1011.8
20260904211132 66 246 0.0 2.0 0.00 0.00 0.00 80 1011.8
20260904210904 66 195 0.0 2.0 0.00 0.00 0.00 80 1012.0
20260904210132 66 242 1.0 2.0 0.00 0.00 0.00 80 1011.9
20260904205907 66 154 0.0 2.0 0.00 0.00 0.00 80 1011.8
20260904205138 66 161 1.0 2.0 0.00 0.00 0.00 79 1011.9
20260904204634 66 144 1.0 2.0 0.00 0.00 0.00 79 1011.8
20260904204134 66 163 2.0 2.0 0.00 0.00 0.00 79 1011.6
20260904203634 66 166 1.0 2.0 0.00 0.00 0.00 79 1011.9
20260904203449 67 338 0.0 3.0 0.00 0.00 0.00 78 1011.9
20260904203443 67 132 1.0 3.0 0.00 0.00 0.00 78 1011.9
20260904203439 67 159 2.0 2.0 0.00 0.00 0.00 78 1012.2
20260904203435 66 315 0.0 2.0 0.00 0.00 0.00 79 1012.1
20260904201133 67 179 0.0 1.0 0.00 0.00 0.00 78 1012.1
20260904200638 67 164 0.0 2.0 0.00 0.00 0.00 77 1012.2
20260904200137 68 135 0.0 2.0 0.00 0.00 0.00 77 1012.3
20260904195634 68 177 0.0 2.0 0.00 0.00 0.00 76 1012.3
20260904195132 68 224 0.0 1.0 0.00 0.00 0.00 75 1012.5
20260904194907 68 242 0.0 1.0 0.00 0.00 0.00 74 1012.7
20260904194134 69 180 0.0 1.0 0.00 0.00 0.00 73 1012.3
20260904193634 69 180 0.0 1.0 0.00 0.00 0.00 73 1012.3
20260904193145 70 209 0.0 1.0 0.00 0.00 0.00 70 1012.3
20260904193139 70 202 0.0 1.0 0.00 0.00 0.00 72 1012.5
20260904192135 70 247 0.0 1.0 0.00 0.00 0.00 73 1012.4
20260904191633 70 231 0.0 1.0 0.00 0.00 0.00 73 1012.4
20260904191405 70 224 0.0 1.0 0.00 0.00 0.00 70 1012.6
20260904190633 70 228 0.0 1.0 0.00 0.00 0.00 69 1012.3
20260904190131 71 166 0.0 2.0 0.00 0.00 0.00 68 1012.5
20260904185908 71 224 0.0 2.0 0.00 0.00 0.00 68 1012.4
20260904185406 71 191 1.0 1.0 0.00 0.00 0.00 67 1012.6
20260904184631 72 135 0.0 1.0 0.00 0.00 0.00 66 1012.4
20260904184130 72 129 0.0 1.0 0.00 0.00 0.00 65 1012.2
20260904183913 73 203 0.0 2.0 0.00 0.00 0.00 65 1012.4
20260904183129 73 202 0.0 2.0 0.00 0.00 0.00 64 1012.4
20260904182906 74 333 0.0 1.0 0.00 0.00 0.00 64 1012.3
20260904182131 74 195 0.0 1.0 0.00 0.00 0.00 62 1012.3
20260904181633 75 195 0.0 1.0 0.00 0.00 0.00 59 1012.0
20260904181130 76 175 1.0 2.0 0.00 0.00 0.00 58 1012.1
20260904180906 76 230 0.0 2.0 0.00 0.00 0.00 57 1012.0
20260904180130 77 224 0.0 1.0 0.00 0.00 0.00 55 1012.0
20260904175631 78 224 0.0 1.0 0.00 0.00 0.00 53 1011.8